Wind_Speed
31 32 32 33 34 36 38 39 40 40 41 44 43 42 41 42 42 41 41 41 41 41 42 42 42 42 42 42 41 40 40 40 39 39 38 38 37 37 37 37 37 37 37 36
31 30 30 31 32 34 35 37 39 38 39 42 42 41 39 40 40 40 40 40 41 41 41 42 42 41 41 41 41 41 40 39 39 39 38 38 37 37 37 38 38 38 38 37
31 29 28 29 30 31 32 34 35 36 37 38 39 39 38 37 37 37 38 38 39 41 41 41 41 41 41 41 42 41 41 40 40 39 39 38 38 38 38 38 38 38 38 38
30 29 28 29 30 31 31 32 33 33 34 34 35 38 36 36 36 35 35 37 38 38 39 40 41 41 41 41 41 41 41 41 41 39 38 38 38 38 38 38 38 38 38 38
28 28 28 29 29 30 31 31 32 32 33 34 33 35 33 33 33 33 34 35 37 36 37 38 39 40 40 40 40 40 41 40 40 40 38 38 39 38 38 38 38 38 38 38
28 28 28 28 28 29 29 30 30 30 31 32 30 32 31 29 30 31 32 34 35 35 35 36 37 38 38 38 39 40 40 40 38 38 39 39 38 38 38 38 38 38 38 39
27 27 27 27 27 27 27 27 29 29 30 29 28 31 30 28 29 29 30 32 33 33 33 34 35 35 36 37 38 39 39 40 40 38 38 38 38 38 39 39 38 39 39 39
27 26 26 25 25 26 25 26 26 28 29 28 28 29 28 28 28 29 29 29 30 31 31 32 33 33 34 35 36 38 39 39 40 39 39 38 38 38 38 38 38 39 39 40
29 27 26 25 24 25 25 25 25 27 28 29 29 29 28 27 27 27 27 28 29 30 30 31 32 32 33 34 34 36 37 37 38 38 38 38 38 38 38 38 38 39 39 39
29 29 27 26 25 25 25 25 25 26 27 27 26 26 27 26 27 26 27 28 29 29 29 30 31 31 32 32 33 35 36 36 36 36 37 37 38 38 38 38 38 39 40 40
28 28 27 26 25 25 25 25 26 26 28 28 27 25 25 25 25 26 27 29 29 29 29 28 29 31 31 32 33 34 35 35 35 35 36 36 37 37 37 38 39 39 39 40
27 28 26 26 25 25 26 26 26 27 27 28 29 27 25 25 25 26 27 28 28 29 29 29 29 30 31 31 32 33 33 33 34 34 35 35 36 36 36 38 39 40 40 40
28 28 28 26 26 26 26 26 27 28 28 29 28 28 26 26 26 26 26 26 28 28 29 29 30 30 30 30 31 31 32 32 33 34 34 35 35 36 36 37 38 39 40 40
28 29 29 29 28 27 27 28 28 29 30 30 29 28 27 26 27 27 27 27 27 28 28 29 29 30 30 30 31 31 31 32 32 33 34 34 35 35 37 38 39 39 39 40
29 29 29 30 29 29 29 28 29 30 31 32 30 29 28 28 28 28 28 28 28 29 29 29 29 30 30 31 31 31 31 31 31 32 33 35 35 36 37 38 38 39 39 39
29 30 30 30 30 30 30 30 30 31 31 32 32 31 29 30 30 29 29 28 29 29 29 29 30 30 30 30 30 30 30 30 30 31 32 34 35 36 37 37 37 38 38 39
28 29 30 30 30 32 32 29 30 31 31 31 31 30 30 31 31 30 30 30 30 30 30 30 30 31 31 30 30 31 31 30 30 31 31 32 34 35 35 35 36 36 37 38
28 28 30 30 30 32 30 29 29 30 30 31 32 32 32 32 32 32 31 31 30 31 31 31 31 31 31 31 31 31 32 31 31 31 31 31 32 33 33 34 34 35 36 37
27 28 29 29 30 30 29 27 27 29 30 30 32 32 32 32 31 31 31 31 30 31 32 32 31 31 31 31 31 31 32 32 32 31 30 30 31 32 32 33 33 34 35 36
26 27 28 29 29 29 27 26 27 28 29 28 30 31 31 30 30 30 30 29 29 29 30 31 31 31 31 31 31 32 31 31 31 31 31 31 31 31 31 31 32 32 33 34
25 26 26 27 28 27 26 26 27 28 28 28 28 29 30 29 29 29 30 29 29 29 28 29 30 30 30 30 31 30 31 31 31 31 31 31 31 31 32 31 31 31 31 32
25 26 25 26 27 26 26 26 26 26 26 27 28 28 28 28 28 28 28 29 29 29 28 28 29 30 30 30 30 29 29 30 31 31 31 31 31 32 31 31 30 30 30 31
24 24 25 25 25 26 26 26 26 26 26 26 26 27 27 27 27 27 28 29 29 30 29 29 29 30 30 30 30 29 29 30 31 31 31 31 31 30 30 30 30 29 30 30
24 24 24 24 24 25 25 26 26 26 26 26 26 27 27 27 28 28 28 28 29 29 28 29 29 30 30 30 30 30 30 30 30 31 31 31 31 30 30 29 29 29 29 30
25 25 25 25 24 24 24 25 25 26 26 26 26 27 27 27 27 28 28 28 28 28 28 28 29 29 29 30 30 30 31 30 30 31 31 31 31 31 30 29 29 30 30 29
25 25 25 24 24 24 22 23 24 24 24 25 25 26 26 26 26 27 27 27 27 27 27 28 28 28 28 29 29 29 30 30 30 30 30 30 30 30 30 29 28 28 29 30
Wind_Direction
279 274 270 268 267 267 264 262 262 261 260 259 257 257 258 259 259 258 257 254 253 251 249 248 248 249 249 249 250 250 252 253 252 252 253 254 254 254 253 253 253 254 254 255
280 278 275 271 269 267 266 263 262 260 259 258 257 258 257 258 259 259 258 256 253 251 250 248 248 248 249 249 250 250 251 251 251 251 252 253 253 254 253 253 253 253 254 254
280 279 275 271 269 269 267 266 264 262 259 258 259 258 257 256 258 259 258 256 255 253 251 250 248 248 249 250 250 250 250 251 251 250 251 252 252 252 252 252 253 253 253 254
279 276 274 271 269 271 269 266 264 263 260 260 260 262 257 258 258 259 259 257 256 254 252 251 249 249 250 250 250 250 250 250 249 249 249 250 251 252 252 252 252 253 253 255
280 276 272 269 269 270 269 266 264 262 261 262 261 263 261 261 261 260 259 257 255 253 252 252 250 249 250 250 250 250 249 249 248 247 247 249 250 252 251 251 252 252 253 254
280 277 274 271 270 270 268 264 263 261 263 264 262 264 264 263 264 261 259 258 255 253 252 251 251 250 250 249 248 249 248 247 246 246 246 248 249 250 250 251 252 253 253 255
281 277 274 272 270 268 268 266 266 264 263 266 265 265 266 267 267 263 261 259 256 255 253 250 250 250 249 249 249 250 250 249 247 247 246 247 248 250 250 251 252 254 254 255
280 277 275 272 270 269 267 267 266 266 266 265 264 266 268 267 266 264 261 259 258 257 255 252 250 250 250 249 249 251 250 249 248 247 247 248 249 250 251 251 252 254 255 256
278 276 273 269 268 267 266 265 265 265 266 265 265 266 266 265 264 264 262 259 258 258 255 252 252 252 251 250 250 250 249 248 248 248 249 249 250 251 252 253 253 255 256 257
278 276 273 270 267 265 265 265 263 263 266 266 267 266 268 267 267 264 262 261 258 257 255 253 253 252 250 250 250 251 251 250 249 249 250 251 252 252 254 254 256 255 255 257
275 275 273 270 268 267 264 263 262 263 263 264 267 267 267 268 268 266 265 263 259 255 255 254 253 252 252 252 251 252 251 250 250 250 250 252 253 253 254 255 255 255 256 257
272 273 272 269 268 267 265 264 263 263 263 262 264 265 266 266 267 266 265 263 259 255 254 253 253 252 252 253 253 252 252 250 250 251 252 253 253 254 255 255 255 255 256 257
271 271 272 268 266 265 265 264 263 262 262 262 263 265 266 267 267 266 266 264 260 256 254 252 253 253 253 253 253 251 251 251 251 252 253 254 255 256 257 257 256 256 256 257
269 269 268 268 268 268 266 264 263 261 261 262 263 266 265 266 265 264 263 261 260 257 253 251 252 253 253 253 253 252 253 254 253 253 253 254 256 258 258 258 258 257 258 258
269 270 268 266 265 264 265 265 263 262 263 264 263 264 265 267 267 265 263 260 259 257 254 253 253 254 255 255 254 253 254 254 254 254 255 255 256 258 258 260 259 259 259 259
269 270 268 265 265 264 264 264 264 263 263 263 263 265 265 266 267 266 263 263 261 257 255 254 254 255 256 256 255 254 255 255 256 257 258 258 258 259 260 261 260 260 260 260
270 270 271 267 266 265 264 266 265 264 263 263 264 266 266 266 266 265 262 263 262 259 256 256 257 257 256 257 257 255 255 257 259 259 260 261 261 261 262 261 261 261 261 261
271 271 272 272 268 266 267 268 267 265 264 263 263 264 265 264 263 263 263 263 262 259 257 257 258 257 256 256 257 257 257 259 260 261 262 262 262 262 264 264 263 262 262 262
272 272 273 274 272 270 268 270 270 269 266 264 263 263 263 262 260 261 262 262 262 260 258 257 257 257 255 255 257 257 260 260 261 262 263 263 263 263 264 265 264 264 264 264
271 272 273 273 273 273 272 271 271 271 269 267 265 264 263 260 259 260 260 260 260 259 259 257 257 257 256 257 258 259 260 261 260 260 262 264 264 265 265 266 266 266 266 265
271 271 274 275 274 275 273 273 273 272 272 269 267 265 263 260 259 259 259 259 259 259 259 258 256 256 257 258 259 260 260 260 260 260 262 263 264 265 265 266 266 266 266 266
271 272 275 276 275 275 275 273 272 273 272 270 267 265 264 262 260 260 259 259 259 260 259 259 257 257 258 260 260 260 261 261 261 261 262 264 265 265 264 265 265 266 267 267
271 273 276 275 275 275 274 272 272 272 272 271 267 265 264 262 260 259 259 259 261 261 261 261 259 258 259 260 261 260 261 262 262 262 263 264 264 264 264 264 264 266 266 266
272 272 275 276 275 274 273 272 272 271 271 271 267 265 264 262 260 259 260 261 261 261 262 262 261 260 260 260 261 261 261 262 262 261 262 263 264 263 264 264 263 265 266 267
270 270 273 275 275 275 275 274 273 271 270 270 268 266 266 264 261 260 260 261 260 260 261 261 260 260 260 260 262 262 262 262 262 262 261 262 263 263 263 264 264 264 265 267
269 270 272 275 274 273 273 274 272 271 271 271 270 268 266 264 262 261 261 261 261 260 260 259 258 259 259 259 260 262 263 262 263 262 262 262 262 263 263 263 264 265 267 267
Height
5654 5654 5653 5654 5654 5654 5654 5654 5656 5659 5659 5659 5661 5665 5668 5669 5672 5674 5677 5680 5683 5686 5690 5693 5697 5700 5703 5707 5710 5713 5715 5718 5720 5722 5725 5727 5729 5731 5733 5735 5737 5739 5741 5743
5645 5645 5646 5645 5645 5645 5645 5645 5646 5649 5650 5650 5652 5655 5658 5660 5662 5664 5666 5669 5672 5675 5679 5682 5686 5690 5693 5697 5700 5703 5705 5707 5710 5713 5715 5717 5720 5722 5724 5726 5728 5730 5733 5734
5637 5638 5637 5637 5636 5636 5637 5637 5637 5639 5640 5641 5642 5645 5648 5651 5652 5654 5656 5659 5661 5664 5668 5672 5675 5679 5682 5686 5689 5692 5695 5697 5699 5703 5705 5708 5710 5712 5715 5717 5720 5722 5724 5726
5629 5629 5629 5629 5629 5628 5629 5629 5629 5630 5630 5632 5635 5634 5640 5642 5643 5645 5647 5649 5651 5654 5657 5661 5665 5668 5672 5675 5677 5681 5684 5687 5690 5692 5695 5698 5701 5704 5706 5709 5711 5713 5715 5717
5622 5622 5621 5621 5622 5621 5621 5621 5622 5622 5622 5624 5626 5626 5631 5633 5635 5637 5638 5640 5642 5645 5647 5651 5654 5658 5661 5664 5667 5670 5673 5676 5679 5683 5685 5688 5691 5694 5697 5699 5702 5704 5706 5708
5615 5615 5615 5614 5615 5614 5614 5614 5614 5614 5615 5617 5620 5620 5622 5625 5627 5628 5629 5630 5632 5635 5638 5641 5644 5648 5651 5654 5657 5660 5662 5666 5669 5672 5675 5678 5681 5684 5687 5690 5692 5695 5697 5699
5608 5608 5608 5608 5608 5608 5608 5608 5608 5608 5609 5611 5614 5613 5616 5618 5619 5620 5621 5622 5624 5627 5629 5632 5635 5638 5641 5644 5647 5650 5653 5656 5659 5662 5665 5668 5672 5675 5678 5681 5683 5686 5688 5690
5601 5601 5601 5601 5601 5601 5602 5602 5603 5603 5603 5605 5607 5607 5611 5612 5612 5612 5614 5615 5616 5618 5621 5623 5627 5630 5632 5635 5638 5640 5643 5646 5649 5652 5656 5659 5662 5665 5668 5671 5674 5676 5678 5680
5594 5594 5595 5595 5595 5595 5596 5596 5597 5597 5597 5598 5600 5602 5604 5605 5605 5605 5606 5607 5609 5611 5613 5615 5618 5621 5624 5627 5629 5631 5634 5637 5640 5643 5646 5649 5652 5656 5659 5661 5664 5666 5668 5670
5587 5587 5589 5588 5589 5589 5590 5590 5591 5591 5590 5591 5594 5596 5597 5597 5598 5599 5599 5600 5602 5603 5605 5608 5611 5613 5616 5618 5620 5623 5625 5628 5631 5634 5637 5640 5643 5646 5649 5652 5654 5656 5658 5659
5580 5580 5582 5581 5582 5583 5584 5585 5584 5585 5585 5586 5587 5591 5591 5591 5592 5592 5592 5593 5594 5596 5598 5601 5603 5605 5608 5610 5612 5614 5617 5619 5622 5625 5629 5632 5634 5637 5639 5642 5644 5646 5648 5650
5573 5573 5574 5575 5576 5576 5577 5578 5578 5579 5579 5580 5580 5586 5585 5585 5584 5585 5585 5586 5587 5589 5591 5593 5595 5597 5600 5602 5604 5606 5608 5611 5614 5617 5620 5623 5625 5628 5630 5632 5634 5636 5638 5640
5566 5566 5566 5568 5571 5570 5570 5571 5571 5572 5572 5572 5573 5578 5578 5578 5578 5578 5578 5579 5580 5582 5584 5585 5587 5590 5592 5594 5596 5598 5600 5603 5606 5609 5611 5614 5616 5618 5620 5622 5624 5626 5627 5629
5558 5558 5560 5561 5561 5562 5563 5564 5564 5565 5565 5566 5568 5569 5571 5570 5570 5571 5571 5571 5572 5574 5576 5578 5580 5582 5584 5586 5588 5591 5593 5595 5598 5600 5602 5605 5607 5609 5611 5612 5614 5615 5617 5619
5551 5551 5552 5552 5554 5554 5555 5556 5557 5557 5558 5558 5561 5561 5563 5563 5563 5564 5564 5565 5566 5567 5569 5571 5573 5574 5576 5579 5581 5583 5585 5587 5589 5591 5593 5595 5597 5599 5601 5602 5603 5605 5607 5608
5543 5543 5544 5545 5546 5546 5547 5548 5549 5549 5550 5551 5552 5554 5555 5554 5555 5556 5557 5557 5558 5560 5561 5563 5565 5567 5569 5571 5573 5575 5577 5579 5581 5583 5584 5586 5587 5589 5591 5592 5593 5595 5596 5598
5536 5536 5536 5536 5537 5537 5539 5542 5541 5541 5542 5543 5544 5546 5545 5546 5547 5548 5548 5549 5551 5552 5553 5555 5557 5559 5561 5563 5565 5567 5569 5571 5572 5574 5575 5577 5578 5580 5581 5582 5583 5584 5585 5587
5529 5528 5527 5528 5529 5528 5534 5534 5533 5533 5534 5535 5535 5536 5536 5537 5538 5539 5540 5541 5542 5544 5545 5547 5549 5551 5552 5554 5556 5558 5560 5562 5564 5565 5566 5568 5569 5570 5571 5572 5573 5574 5575 5576
5522 5521 5520 5520 5519 5520 5525 5526 5525 5524 5525 5526 5526 5527 5527 5528 5529 5531 5532 5533 5534 5536 5537 5539 5541 5542 5544 5546 5548 5550 5552 5553 5555 5556 5558 5559 5560 5561 5562 5563 5563 5564 5565 5566
5515 5514 5514 5513 5512 5513 5518 5518 5516 5516 5516 5518 5518 5518 5519 5519 5521 5524 5524 5525 5526 5528 5529 5531 5532 5534 5536 5537 5539 5541 5543 5545 5546 5548 5549 5550 5551 5552 5553 5554 5554 5555 5555 5556
5508 5507 5507 5506 5505 5506 5510 5510 5509 5510 5510 5510 5509 5510 5510 5511 5513 5515 5516 5517 5518 5520 5521 5522 5524 5526 5527 5529 5531 5532 5534 5536 5537 5538 5540 5541 5542 5543 5544 5545 5545 5546 5546 5547
5501 5500 5500 5500 5499 5502 5502 5502 5502 5502 5501 5501 5501 5502 5502 5503 5505 5506 5508 5509 5510 5512 5513 5514 5516 5517 5519 5521 5522 5524 5526 5527 5528 5529 5531 5532 5533 5534 5535 5536 5536 5536 5537 5537
5494 5495 5494 5494 5496 5495 5494 5494 5493 5493 5493 5493 5493 5494 5495 5495 5497 5498 5500 5501 5502 5504 5505 5506 5507 5509 5511 5512 5514 5515 5517 5518 5519 5520 5522 5523 5524 5525 5526 5526 5527 5527 5527 5528
5487 5487 5486 5486 5487 5487 5486 5486 5486 5485 5485 5485 5485 5486 5487 5487 5489 5490 5491 5493 5494 5495 5496 5498 5499 5501 5502 5504 5505 5506 5508 5509 5510 5511 5513 5514 5515 5516 5516 5517 5517 5518 5518 5519
5480 5480 5479 5479 5480 5479 5479 5478 5478 5478 5478 5478 5478 5478 5479 5479 5480 5481 5483 5484 5485 5487 5488 5489 5490 5492 5494 5495 5496 5498 5499 5500 5501 5502 5503 5504 5505 5506 5507 5508 5508 5509 5509 5509
5473 5473 5472 5472 5473 5472 5472 5471 5471 5471 5471 5471 5471 5471 5471 5471 5472 5473 5474 5476 5477 5478 5479 5480 5482 5483 5485 5487 5488 5489 5489 5490 5491 5493 5494 5495 5496 5497 5498 5498 5499 5499 5500 5500